�������l�o���
Date,Time,MP-1(��Sv/h),MP-2(��Sv/h),MP-3(��Sv/h),MP-4(��Sv/h),MP-5(��Sv/h),MP-6(��Sv/h),MP-7(��Sv/h),MP-8(��Sv/h),����,����(m/s),���J
2020/08/09,00:00,0.667,0.956,0.602,1.153,0.831,0.391,0.672,0.634,��,3.6,��
2020/08/09,00:10,0.667,0.958,0.603,1.154,0.832,0.390,0.672,0.632,��,3.5,��
2020/08/09,00:20,0.667,0.958,0.603,1.152,0.832,0.391,0.673,0.632,��,3.8,��
2020/08/09,00:30,0.667,0.958,0.603,1.154,0.834,0.392,0.674,0.632,��,4.2,��
2020/08/09,00:40,0.667,0.957,0.602,1.153,0.834,0.392,0.674,0.632,��,4.4,��
2020/08/09,00:50,0.666,0.957,0.603,1.153,0.833,0.393,0.673,0.633,��,4.2,��
2020/08/09,01:00,0.668,0.958,0.604,1.154,0.832,0.393,0.672,0.633,��쐼,3.1,��
2020/08/09,01:10,0.666,0.955,0.603,1.155,0.832,0.392,0.672,0.633,��,2.9,��
2020/08/09,01:20,0.667,0.957,0.603,1.154,0.833,0.393,0.673,0.632,��,3.2,��
2020/08/09,01:30,0.667,0.957,0.604,1.154,0.834,0.394,0.673,0.633,��,3.3,��
2020/08/09,01:40,0.668,0.958,0.603,1.154,0.832,0.392,0.673,0.634,��,3.0,��
2020/08/09,01:50,0.667,0.957,0.604,1.154,0.832,0.394,0.676,0.633,��쐼,2.9,��
2020/08/09,02:00,0.667,0.959,0.605,1.155,0.832,0.392,0.674,0.632,��쐼,2.0,��
2020/08/09,02:10,0.667,0.958,0.604,1.156,0.831,0.394,0.675,0.634,��,1.5,��
2020/08/09,02:20,0.670,0.959,0.604,1.153,0.834,0.394,0.675,0.634,��,1.5,��
2020/08/09,02:30,0.668,0.958,0.604,1.154,0.834,0.393,0.674,0.634,-,CALM,��
2020/08/09,02:40,0.668,0.958,0.605,1.155,0.831,0.393,0.674,0.635,-,CALM,��
2020/08/09,02:50,0.667,0.958,0.604,1.158,0.834,0.393,0.675,0.633,-,CALM,��
2020/08/09,03:00,0.668,0.960,0.605,1.153,0.832,0.394,0.676,0.633,-,CALM,��
2020/08/09,03:10,0.669,0.958,0.606,1.154,0.834,0.393,0.674,0.635,-,CALM,��
2020/08/09,03:20,0.667,0.959,0.605,1.153,0.833,0.394,0.673,0.634,��,1.2,��
2020/08/09,03:30,0.668,0.959,0.605,1.153,0.835,0.393,0.675,0.633,���k��,0.6,��
2020/08/09,03:40,0.669,0.958,0.605,1.153,0.833,0.394,0.674,0.634,���k��,0.8,��
2020/08/09,03:50,0.670,0.961,0.606,1.155,0.832,0.393,0.674,0.634,-,CALM,��
2020/08/09,04:00,0.669,0.961,0.605,1.156,0.835,0.395,0.675,0.634,�k�k��,0.8,��
2020/08/09,04:10,0.670,0.960,0.605,1.157,0.835,0.393,0.676,0.633,�k,1.5,�L
2020/08/09,04:20,0.669,0.959,0.606,1.156,0.833,0.394,0.674,0.634,�k�k��,1.2,�L
2020/08/09,04:30,0.668,0.961,0.604,1.155,0.836,0.393,0.675,0.634,�k,1.7,�L
2020/08/09,04:40,0.669,0.960,0.606,1.157,0.835,0.394,0.675,0.634,�k,2.0,�L
2020/08/09,04:50,0.669,0.959,0.606,1.154,0.836,0.395,0.675,0.635,�k�k��,1.7,�L
2020/08/09,05:00,0.669,0.959,0.605,1.155,0.836,0.394,0.676,0.634,���k��,0.9,�L
2020/08/09,05:10,0.670,0.962,0.607,1.157,0.834,0.393,0.674,0.634,��,1.5,��
2020/08/09,05:20,0.670,0.956,0.605,1.155,0.836,0.394,0.674,0.633,���쓌,0.9,��
2020/08/09,05:30,0.667,0.960,0.606,1.155,0.835,0.394,0.673,0.633,��쓌,0.8,��
2020/08/09,05:40,0.667,0.959,0.606,1.158,0.833,0.393,0.675,0.634,��,0.9,��
2020/08/09,05:50,0.668,0.959,0.604,1.155,0.836,0.394,0.675,0.635,��,0.9,��
2020/08/09,06:00,0.669,0.957,0.604,1.155,0.835,0.393,0.675,0.634,���k��,0.8,��
2020/08/09,06:10,0.668,0.960,0.604,1.157,0.834,0.394,0.676,0.635,-,CALM,��
2020/08/09,06:20,0.668,0.958,0.605,1.155,0.835,0.393,0.674,0.635,�k��,0.9,��
2020/08/09,06:30,0.671,0.962,0.607,1.156,0.834,0.394,0.674,0.634,-,CALM,��
2020/08/09,06:40,0.669,0.960,0.605,1.156,0.835,0.392,0.676,0.634,-,CALM,�L
2020/08/09,06:50,0.670,0.958,0.606,1.155,0.835,0.393,0.673,0.635,���k��,1.1,�L
2020/08/09,07:00,0.667,0.958,0.606,1.154,0.833,0.393,0.676,0.635,�k��,1.1,�L
2020/08/09,07:10,0.668,0.957,0.605,1.155,0.834,0.393,0.675,0.637,�k��,0.8,��
2020/08/09,07:20,0.669,0.959,0.603,1.156,0.835,0.394,0.673,0.633,�k�k��,0.6,��
2020/08/09,07:30,0.666,0.956,0.604,1.154,0.835,0.393,0.673,0.634,��쓌,0.6,��
2020/08/09,07:40,0.667,0.957,0.604,1.156,0.836,0.393,0.673,0.634,�쓌,0.8,��
2020/08/09,07:50,0.667,0.954,0.604,1.154,0.833,0.394,0.674,0.633,��쓌,1.1,��
2020/08/09,08:00,0.666,0.957,0.606,1.157,0.833,0.391,0.673,0.632,��,1.2,��
2020/08/09,08:10,0.668,0.954,0.604,1.155,0.832,0.390,0.673,0.632,��쓌,2.0,��
2020/08/09,08:20,0.666,0.954,0.602,1.153,0.834,0.392,0.673,0.632,��쐼,0.9,��
2020/08/09,08:30,0.666,0.957,0.602,1.154,0.832,0.390,0.672,0.632,�쐼,0.6,��
2020/08/09,08:40,0.666,0.953,0.603,1.156,0.831,0.392,0.676,0.632,��쐼,1.2,�L
2020/08/09,08:50,0.665,0.954,0.602,1.154,0.832,0.391,0.673,0.632,��,1.5,�L
2020/08/09,09:00,0.667,0.955,0.601,1.154,0.831,0.392,0.673,0.633,��쓌,2.3,�L
2020/08/09,09:10,0.666,0.954,0.603,1.154,0.834,0.391,0.673,0.631,��쓌,2.6,��
2020/08/09,09:20,0.666,0.956,0.604,1.154,0.835,0.392,0.673,0.629,��,3.3,��
2020/08/09,09:30,0.667,0.955,0.603,1.152,0.833,0.390,0.673,0.632,��,3.6,��
2020/08/09,09:40,0.666,0.954,0.603,1.153,0.832,0.392,0.672,0.631,��쓌,4.7,��
2020/08/09,09:50,0.665,0.954,0.603,1.155,0.832,0.391,0.673,0.632,��쓌,5.4,��
2020/08/09,10:00,0.665,0.955,0.604,1.156,0.832,0.392,0.673,0.633,��,4.2,��
2020/08/09,10:10,0.666,0.955,0.603,1.154,0.831,0.392,0.672,0.630,��,3.6,��
2020/08/09,10:20,0.665,0.953,0.601,1.155,0.833,0.392,0.674,0.631,��,3.2,��
2020/08/09,10:30,0.664,0.958,0.602,1.153,0.832,0.393,0.674,0.633,��,2.3,��
2020/08/09,10:40,0.665,0.955,0.602,1.156,0.835,0.393,0.673,0.631,��,2.0,�L
2020/08/09,10:50,0.666,0.955,0.602,1.155,0.834,0.393,0.673,0.631,��쓌,2.5,�L
2020/08/09,11:00,0.665,0.958,0.603,1.154,0.834,0.391,0.674,0.631,��,2.5,�L
2020/08/09,11:10,0.666,0.958,0.602,1.157,0.834,0.392,0.673,0.630,��쓌,3.2,��
2020/08/09,11:20,0.665,0.957,0.601,1.154,0.832,0.392,0.674,0.632,��쓌,4.4,��
2020/08/09,11:30,0.666,0.958,0.602,1.156,0.832,0.393,0.674,0.632,��,3.9,��
2020/08/09,11:40,0.668,0.960,0.602,1.155,0.832,0.393,0.674,0.632,��,3.7,�L
2020/08/09,11:50,0.668,0.960,0.604,1.155,0.832,0.392,0.673,0.630,��,4.1,�L
2020/08/09,12:00,0.668,0.960,0.604,1.155,0.832,0.393,0.675,0.631,��,4.3,�L
2020/08/09,12:10,0.669,0.961,0.603,1.155,0.832,0.394,0.674,0.630,��,4.5,��
2020/08/09,12:20,0.667,0.961,0.603,1.157,0.834,0.393,0.674,0.632,��,4.4,��
2020/08/09,12:30,0.669,0.963,0.601,1.157,0.836,0.394,0.673,0.631,��,4.1,��
2020/08/09,12:40,0.669,0.962,0.605,1.155,0.834,0.394,0.675,0.631,��,4.6,��
2020/08/09,12:50,0.668,0.960,0.603,1.156,0.835,0.393,0.676,0.632,��쓌,6.4,��
2020/08/09,13:00,0.669,0.962,0.602,1.156,0.837,0.394,0.678,0.632,��,5.9,��
2020/08/09,13:10,0.666,0.961,0.604,1.158,0.837,0.393,0.674,0.632,��,6.2,��
2020/08/09,13:20,0.667,0.961,0.605,1.157,0.836,0.394,0.675,0.632,��,6.0,��
2020/08/09,13:30,0.667,0.963,0.603,1.155,0.835,0.393,0.675,0.633,��쓌,5.9,��
2020/08/09,13:40,0.666,0.963,0.603,1.155,0.836,0.393,0.675,0.632,��,5.6,��
2020/08/09,13:50,0.670,0.962,0.603,1.155,0.836,0.393,0.675,0.631,��,6.5,��
2020/08/09,14:00,0.666,0.963,0.603,1.158,0.835,0.393,0.674,0.632,��,8.1,��
2020/08/09,14:10,0.668,0.963,0.604,1.154,0.836,0.393,0.673,0.632,��,9.0,��
2020/08/09,14:20,0.669,0.962,0.603,1.157,0.835,0.392,0.675,0.633,��,6.3,�L
2020/08/09,14:30,0.668,0.963,0.605,1.157,0.834,0.394,0.673,0.632,��,5.2,��
2020/08/09,14:40,0.669,0.964,0.604,1.156,0.837,0.394,0.673,0.633,��,4.7,��
2020/08/09,14:50,0.670,0.966,0.605,1.158,0.837,0.394,0.675,0.632,��,4.6,��
2020/08/09,15:00,0.668,0.964,0.606,1.156,0.836,0.395,0.674,0.632,��,4.8,��
2020/08/09,15:10,0.670,0.963,0.606,1.159,0.838,0.394,0.674,0.631,��쐼,4.7,��
2020/08/09,15:20,0.669,0.964,0.604,1.156,0.836,0.394,0.675,0.631,��쐼,3.7,��
2020/08/09,15:30,0.668,0.963,0.606,1.157,0.840,0.396,0.677,0.631,�쐼,3.1,��
2020/08/09,15:40,0.669,0.965,0.605,1.157,0.838,0.394,0.677,0.632,�쐼,2.6,��
2020/08/09,15:50,0.670,0.964,0.608,1.159,0.838,0.394,0.675,0.631,��,3.3,��
2020/08/09,16:00,0.671,0.966,0.605,1.159,0.839,0.396,0.674,0.632,��,3.0,��
2020/08/09,16:10,0.670,0.965,0.606,1.160,0.838,0.395,0.675,0.632,���쐼,3.5,��
2020/08/09,16:20,0.670,0.965,0.607,1.157,0.839,0.394,0.674,0.633,��,4.6,��
2020/08/09,16:30,0.673,0.966,0.608,1.158,0.837,0.395,0.675,0.634,��,6.9,��
2020/08/09,16:40,0.671,0.968,0.607,1.159,0.840,0.394,0.675,0.633,��,6.4,��
2020/08/09,16:50,0.672,0.967,0.609,1.158,0.839,0.396,0.677,0.634,��,3.4,��
2020/08/09,17:00,0.672,0.966,0.607,1.158,0.840,0.395,0.676,0.634,���쐼,1.9,��
2020/08/09,17:10,0.671,0.965,0.607,1.159,0.839,0.395,0.677,0.633,��쐼,1.4,��
2020/08/09,17:20,0.671,0.966,0.606,1.158,0.840,0.395,0.675,0.634,�쐼,1.4,��
2020/08/09,17:30,0.672,0.967,0.607,1.158,0.839,0.395,0.679,0.633,��쐼,1.7,��
2020/08/09,17:40,0.670,0.967,0.608,1.158,0.841,0.396,0.676,0.633,�쐼,3.5,�L
2020/08/09,17:50,0.671,0.967,0.608,1.161,0.839,0.396,0.677,0.634,�쐼,3.8,�L
2020/08/09,18:00,0.673,0.967,0.605,1.159,0.839,0.396,0.676,0.633,�쐼,5.4,�L
2020/08/09,18:10,0.670,0.965,0.607,1.160,0.840,0.396,0.677,0.635,�쐼,3.5,�L
2020/08/09,18:20,0.671,0.966,0.606,1.159,0.836,0.396,0.677,0.634,�쐼,3.6,�L
2020/08/09,18:30,0.674,0.966,0.606,1.158,0.840,0.395,0.676,0.633,�쐼,4.9,�L
2020/08/09,18:40,0.673,0.964,0.607,1.162,0.836,0.395,0.677,0.635,�쐼,5.6,�L
2020/08/09,18:50,0.673,0.965,0.607,1.160,0.839,0.396,0.676,0.634,�쐼,4.9,�L
2020/08/09,19:00,0.672,0.967,0.607,1.159,0.841,0.397,0.676,0.634,�쐼,5.7,��
2020/08/09,19:10,0.670,0.963,0.607,1.160,0.841,0.397,0.676,0.635,�쐼,5.3,��
2020/08/09,19:20,0.670,0.962,0.606,1.160,0.838,0.394,0.679,0.636,�쐼,6.1,��
2020/08/09,19:30,0.672,0.963,0.605,1.160,0.839,0.396,0.676,0.635,�쐼,6.4,��
2020/08/09,19:40,0.671,0.963,0.607,1.161,0.838,0.396,0.676,0.635,�쐼,6.1,��
2020/08/09,19:50,0.670,0.963,0.605,1.159,0.838,0.396,0.676,0.634,�쐼,5.8,��
2020/08/09,20:00,0.670,0.963,0.604,1.158,0.838,0.395,0.678,0.636,���쐼,5.7,��
2020/08/09,20:10,0.672,0.963,0.608,1.159,0.840,0.394,0.676,0.635,�쐼,6.1,��
2020/08/09,20:20,0.672,0.963,0.606,1.159,0.840,0.394,0.676,0.635,�쐼,5.2,��
2020/08/09,20:30,0.671,0.963,0.606,1.159,0.838,0.396,0.678,0.635,�쐼,6.3,��
2020/08/09,20:40,0.672,0.964,0.606,1.161,0.840,0.395,0.677,0.636,��쐼,7.0,��
2020/08/09,20:50,0.672,0.962,0.608,1.161,0.840,0.395,0.679,0.638,�쐼,6.0,��
2020/08/09,21:00,0.673,0.962,0.607,1.159,0.839,0.395,0.677,0.636,�쐼,6.2,��
2020/08/09,21:10,0.673,0.963,0.606,1.161,0.839,0.397,0.676,0.636,�쐼,5.3,��
2020/08/09,21:20,0.672,0.961,0.607,1.159,0.842,0.395,0.677,0.636,�쐼,5.9,��
2020/08/09,21:30,0.674,0.961,0.607,1.160,0.839,0.395,0.677,0.635,�쐼,5.2,��
2020/08/09,21:40,0.671,0.961,0.608,1.158,0.841,0.395,0.677,0.635,�쐼,5.4,�L
2020/08/09,21:50,0.671,0.963,0.608,1.160,0.840,0.395,0.676,0.637,�쐼,4.9,��
2020/08/09,22:00,0.673,0.964,0.606,1.160,0.839,0.395,0.676,0.635,���쐼,4.4,�L
2020/08/09,22:10,0.672,0.963,0.608,1.161,0.839,0.395,0.678,0.636,�쐼,4.5,�L
2020/08/09,22:20,0.671,0.964,0.606,1.160,0.840,0.396,0.676,0.635,�쐼,5.1,�L
2020/08/09,22:30,0.673,0.962,0.608,1.160,0.839,0.395,0.676,0.636,���쐼,5.7,��
2020/08/09,22:40,0.672,0.964,0.605,1.162,0.840,0.395,0.676,0.637,���쐼,5.6,��
2020/08/09,22:50,0.671,0.961,0.606,1.159,0.840,0.396,0.676,0.635,��,6.9,��
2020/08/09,23:00,0.672,0.962,0.605,1.160,0.840,0.395,0.677,0.636,��,6.5,��
2020/08/09,23:10,0.673,0.959,0.606,1.162,0.838,0.397,0.677,0.635,��,8.2,��
2020/08/09,23:20,0.672,0.961,0.606,1.159,0.837,0.394,0.678,0.635,���k��,7.1,��
2020/08/09,23:30,0.673,0.961,0.605,1.161,0.839,0.395,0.678,0.636,���k��,6.4,��
2020/08/09,23:40,0.672,0.961,0.607,1.162,0.839,0.396,0.675,0.636,��,5.5,��
2020/08/09,23:50,0.672,0.964,0.607,1.159,0.839,0.396,0.677,0.636,���k��,4.8,��
